This is the latest recevied weather packets stored in our database for station/object M0HPP-13. If no packets are shown the sender has not sent any weather packets the latest 10 day(s).
| Time | Temp. | Humidity | Pressure | Rain* | Wind** | Luminosity | Snow |
|---|---|---|---|---|---|---|---|
| 1777746619 | 6.67° C | 99% | 1015.9 hPa | 0 mm | - | 11 W/m² | - |
| 1777746019 | 7.22° C | 99% | 1015.9 hPa | 0 mm | - | 11 W/m² | - |
| 1777745419 | 7.22° C | 99% | 1015.8 hPa | 0 mm | - | 18 W/m² | - |
| 1777744819 | 7.22° C | 99% | 1015.7 hPa | 0 mm | - | 30 W/m² | - |
| 1777744219 | 7.22° C | 99% | 1015.6 hPa | 0 mm | - | 41 W/m² | - |
| 1777743619 | 7.22° C | 99% | 1015.6 hPa | 0 mm | - | 36 W/m² | - |
| 1777743019 | 7.22° C | 99% | 1015.6 hPa | 0 mm | - | 41 W/m² | - |
| 1777742419 | 7.22° C | 99% | 1015.6 hPa | 0 mm | - | 42 W/m² | - |
| 1777741819 | 7.22° C | 99% | 1015.6 hPa | 0 mm | - | 31 W/m² | - |
| 1777741219 | 7.22° C | 99% | 1015.5 hPa | 0 mm | - | 37 W/m² | - |
| 1777740619 | 7.22° C | 99% | 1015.5 hPa | 0 mm | - | 27 W/m² | - |
| 1777740019 | 7.22° C | 99% | 1015.5 hPa | 0.25 mm | - | 41 W/m² | - |
| 1777739419 | 7.22° C | 99% | 1015.3 hPa | 0.51 mm | - | 39 W/m² | - |
| 1777738819 | 7.78° C | 98% | 1015.2 hPa | 0.51 mm | - | 32 W/m² | - |
| 1777738219 | 7.78° C | 98% | 1015.2 hPa | 0.51 mm | - | 48 W/m² | - |
| 1777737619 | 7.78° C | 98% | 1015.1 hPa | 0.51 mm | - | 59 W/m² | - |
| 1777737019 | 7.78° C | 97% | 1015 hPa | 0.51 mm | - | 66 W/m² | - |
| 1777736419 | 7.78° C | 98% | 1015.1 hPa | 0.51 mm | - | 72 W/m² | - |
| 1777735819 | 7.78° C | 98% | 1015.2 hPa | 0.51 mm | - | 60 W/m² | - |
| 1777735219 | 7.78° C | 98% | 1015.2 hPa | 0.25 mm | - | 39 W/m² | - |
| 1777734619 | 7.78° C | 99% | 1015.3 hPa | 0.25 mm | - | 44 W/m² | - |
| 1777734019 | 7.78° C | 99% | 1015.2 hPa | 0.25 mm | - | 44 W/m² | - |
| 1777733419 | 7.78° C | 99% | 1015.1 hPa | 0.25 mm | - | 46 W/m² | - |
| 1777732819 | 7.78° C | 99% | 1015.1 hPa | 0.25 mm | - | 49 W/m² | - |
| 1777732219 | 7.78° C | 99% | 1015.1 hPa | 0.25 mm | - | 41 W/m² | - |
* Rain latest hour (hover to see other rain measurements)
** Current wind speed in m/s (hover to see current wind gust speed)